TimePDT,TemperatureF,Dew PointF,Humidity,Sea Level PressureIn,VisibilityMPH,Wind Direction,Wind SpeedMPH,Gust SpeedMPH,PrecipitationIn,Events,Conditions,WindDirDegrees,DateUTC
12:15 AM,53.6,35.6,51,29.94,10.0,North,-9999.0,-,N/A,,Clear,0,2013-05-25 07:15:00
12:35 AM,55.4,33.8,44,29.93,10.0,North,-9999.0,-,N/A,,Clear,0,2013-05-25 07:35:00
12:55 AM,53.6,35.6,51,29.94,10.0,North,-9999.0,-,N/A,,Clear,0,2013-05-25 07:55:00
1:15 AM,55.4,35.6,47,29.94,10.0,WNW,6.9,-,N/A,,Clear,300,2013-05-25 08:15:00
1:35 AM,55.4,35.6,47,29.94,10.0,NW,6.9,-,N/A,,Clear,320,2013-05-25 08:35:00
1:55 AM,55.4,35.6,47,29.94,10.0,NW,5.8,-,N/A,,Clear,320,2013-05-25 08:55:00
2:15 AM,53.6,35.6,51,29.94,10.0,NW,5.8,-,N/A,,Clear,310,2013-05-25 09:15:00
2:35 AM,53.6,37.4,54,29.94,10.0,NW,4.6,-,N/A,,Clear,320,2013-05-25 09:35:00
2:55 AM,51.8,37.4,58,29.94,10.0,NW,4.6,-,N/A,,Clear,320,2013-05-25 09:55:00
3:15 AM,53.6,37.4,54,29.94,10.0,NW,5.8,-,N/A,,Clear,310,2013-05-25 10:15:00
3:35 AM,51.8,37.4,58,29.94,10.0,NW,5.8,-,N/A,,Clear,320,2013-05-25 10:35:00
3:55 AM,51.8,37.4,58,29.94,10.0,NW,5.8,-,N/A,,Clear,320,2013-05-25 10:55:00
4:15 AM,51.8,37.4,58,29.94,10.0,NW,6.9,-,N/A,,Clear,310,2013-05-25 11:15:00
4:35 AM,51.8,39.2,62,29.94,10.0,NW,5.8,-,N/A,,Clear,310,2013-05-25 11:35:00
4:55 AM,51.8,39.2,62,29.95,10.0,NW,5.8,-,N/A,,Clear,320,2013-05-25 11:55:00
5:15 AM,50.0,39.2,66,29.95,10.0,NNW,5.8,-,N/A,,Clear,330,2013-05-25 12:15:00
5:35 AM,48.2,39.2,71,29.95,10.0,NNW,5.8,-,N/A,,Clear,340,2013-05-25 12:35:00
5:55 AM,48.2,41.0,76,29.95,10.0,North,6.9,-,N/A,,Clear,350,2013-05-25 12:55:00
6:15 AM,48.2,41.0,76,29.95,10.0,NNW,5.8,-,N/A,,Clear,340,2013-05-25 13:15:00
6:35 AM,51.8,42.8,71,29.96,10.0,North,6.9,-,N/A,,Clear,360,2013-05-25 13:35:00
6:45 AM,51.8,42.8,71,29.97,10.0,NNW,9.2,-,N/A,,Clear,340,2013-05-25 13:45:00
6:55 AM,51.8,42.8,71,29.97,10.0,North,9.2,-,N/A,,Clear,360,2013-05-25 13:55:00
7:45 AM,55.4,42.8,63,29.97,10.0,NNW,9.2,-,N/A,,Clear,340,2013-05-25 14:45:00
8:50 AM,60.8,42.8,52,29.98,10.0,Variable,4.6,-,N/A,,Clear,0,2013-05-25 15:50:00
9:45 AM,64.4,39.2,40,29.98,10.0,WNW,6.9,-,N/A,,Clear,300,2013-05-25 16:45:00
10:45 AM,69.8,41.0,35,29.98,10.0,Variable,4.6,-,N/A,,Clear,0,2013-05-25 17:45:00
11:45 AM,71.6,41.0,33,29.98,10.0,NW,9.2,-,N/A,,Clear,310,2013-05-25 18:45:00
12:45 PM,75.2,37.4,25,29.97,10.0,Variable,3.5,-,N/A,,Clear,0,2013-05-25 19:45:00
1:45 PM,78.8,35.6,21,29.96,10.0,NNW,8.1,-,N/A,,Clear,330,2013-05-25 20:45:00
2:45 PM,80.6,33.8,18,29.95,10.0,NW,8.1,-,N/A,,Clear,310,2013-05-25 21:45:00
3:45 PM,82.4,35.6,19,29.94,10.0,NNW,9.2,-,N/A,,Clear,330,2013-05-25 22:45:00
4:45 PM,82.4,37.4,20,29.93,10.0,WNW,11.5,-,N/A,,Clear,300,2013-05-25 23:45:00
5:45 PM,80.6,41.0,24,29.93,10.0,Variable,4.6,-,N/A,,Clear,0,2013-05-26 00:45:00
6:45 PM,78.8,39.2,24,29.93,10.0,North,9.2,-,N/A,,Clear,350,2013-05-26 01:45:00
7:45 PM,73.4,42.8,33,29.93,10.0,North,9.2,-,N/A,,Clear,350,2013-05-26 02:45:00
8:45 PM,66.2,42.8,43,29.95,10.0,North,11.5,-,N/A,,Clear,350,2013-05-26 03:45:00
9:15 PM,64.4,39.2,40,29.96,10.0,North,-9999.0,-,N/A,,Clear,0,2013-05-26 04:15:00
9:35 PM,64.4,39.2,40,29.97,10.0,North,8.1,-,N/A,,Clear,10,2013-05-26 04:35:00
9:55 PM,62.6,39.2,42,29.98,10.0,North,5.8,-,N/A,,Clear,350,2013-05-26 04:55:00
10:15 PM,62.6,39.2,42,29.99,10.0,North,5.8,-,N/A,,Clear,360,2013-05-26 05:15:00
10:35 PM,60.8,39.2,45,29.99,10.0,North,5.8,-,N/A,,Clear,360,2013-05-26 05:35:00
10:55 PM,59.0,39.2,48,30.00,10.0,North,4.6,-,N/A,,Clear,360,2013-05-26 05:55:00
11:15 PM,57.2,41.0,55,30.00,10.0,North,6.9,-,N/A,,Clear,360,2013-05-26 06:15:00
11:35 PM,57.2,42.8,59,30.00,10.0,North,6.9,-,N/A,,Clear,10,2013-05-26 06:35:00
11:55 PM,55.4,42.8,63,30.01,10.0,North,6.9,-,N/A,,Clear,360,2013-05-26 06:55:00